This is the latest recevied weather packets stored in our database for station/object WD4IXD. If no packets are shown the sender has not sent any weather packets the latest 1 day(s).
| Time | Temp. | Humidity | Pressure | Rain* | Wind** | Luminosity | Snow |
|---|---|---|---|---|---|---|---|
| 1778004304 | 3.89° C | 94% | 1015 hPa | 0.76 mm | 0.89 m/s, 321° | 132 W/m² | - |
| 1778004020 | 3.89° C | 94% | 1015.1 hPa | 0.76 mm | 0.45 m/s, 333° | 107 W/m² | - |
| 1778003704 | 3.89° C | 94% | 1015.1 hPa | 0.76 mm | 1.34 m/s, 340° | 91 W/m² | - |
| 1778003415 | 3.89° C | 94% | 1015.2 hPa | 0.51 mm | 0.89 m/s, 354° | 116 W/m² | - |
| 1778003115 | 4.44° C | 94% | 1015.3 hPa | 0.51 mm | 0.45 m/s, 10° | 121 W/m² | - |
| 1778002803 | 4.44° C | 94% | 1015.3 hPa | 0.25 mm | 0.45 m/s, 315° | 111 W/m² | - |
| 1778002515 | 4.44° C | 95% | 1015.3 hPa | 0.25 mm | 0.89 m/s, 319° | 105 W/m² | - |
| 1778002204 | 4.44° C | 94% | 1015.3 hPa | 0.25 mm | 0.45 m/s, 325° | 97 W/m² | - |
| 1778001915 | 3.89° C | 94% | 1015.3 hPa | 0.25 mm | 0.45 m/s, 355° | 118 W/m² | - |
| 1778001604 | 3.89° C | 94% | 1015.3 hPa | 0.25 mm | 0.89 m/s, 337° | 155 W/m² | - |
| 1778001315 | 3.89° C | 94% | 1015.3 hPa | 0 mm | 0.89 m/s, 355° | 199 W/m² | - |
| 1778001003 | 3.89° C | 94% | 1015.3 hPa | 0 mm | 0.89 m/s, 16° | 155 W/m² | - |
| 1778000715 | 3.89° C | 94% | 1015.3 hPa | 0.25 mm | 0.89 m/s, 348° | 156 W/m² | - |
| 1778000404 | 3.89° C | 94% | 1015.4 hPa | 0.25 mm | 0.89 m/s, 357° | 156 W/m² | - |
| 1778000115 | 3.89° C | 95% | 1015.5 hPa | 0.25 mm | 0.89 m/s, 7° | 162 W/m² | - |
| 1777999814 | 3.89° C | 94% | 1015.5 hPa | 0.25 mm | 0.45 m/s, 11° | 123 W/m² | - |
| 1777999504 | 3.33° C | 94% | 1015.6 hPa | 0.25 mm | 0.45 m/s, 11° | 127 W/m² | - |
| 1777999215 | 3.33° C | 94% | 1015.6 hPa | 0.25 mm | 0.45 m/s, 0° | 148 W/m² | - |
| 1777998903 | 3.33° C | 94% | 1015.6 hPa | 0.25 mm | 1.34 m/s, 11° | 123 W/m² | - |
| 1777998615 | 3.33° C | 94% | 1015.6 hPa | 0.25 mm | 0.89 m/s, 6° | 120 W/m² | - |
| 1777998304 | 3.33° C | 94% | 1015.7 hPa | 0.25 mm | 0.89 m/s, 11° | 120 W/m² | - |
| 1777998015 | 3.33° C | 94% | 1015.7 hPa | 0.25 mm | 0.89 m/s, 352° | 109 W/m² | - |
| 1777997704 | 3.33° C | 94% | 1015.7 hPa | 0.25 mm | 0.45 m/s, 3° | 105 W/m² | - |
| 1777997415 | 3.33° C | 94% | 1015.7 hPa | 0.25 mm | 1.34 m/s, 339° | 105 W/m² | - |
| 1777997104 | 3.33° C | 94% | 1015.8 hPa | 0 mm | 1.34 m/s, 16° | 70 W/m² | - |
* Rain latest hour (hover to see other rain measurements)
** Current wind speed in m/s (hover to see current wind gust speed)